Regional Weather Roundup
Issued by NWS

Home | Current Version | Previous Version | Text Only | Print | Product List | Glossary Off
Versions: 1 2 3 4 5 6 7 8 9 10 11 12 13 14 15 16 17 18 19 20 21 22 23 24 25 26 27 28 29 30 31 32 33 34 35 36 37 38 39 40 41 42 43 44 45 46 47 48 49 50

000
ASUS43 KBIS 232202
RWRND

NORTH DAKOTA REGIONAL WEATHER ROUNDUP
NATIONAL WEATHER SERVICE BISMARCK ND
500 PM CDT WED AUG 23 2017

NOTE: "FAIR" INDICATES FEW OR NO CLOUDS BELOW 12,000 FEET WITH NO
SIGNIFICANT WEATHER AND/OR OBSTRUCTIONS TO VISIBILITY.


NDZ001>003-009>011-017-232300-
NORTHWEST NORTH DAKOTA

CITY           SKY/WX    TMP DP  RH WIND       PRES   REMARKS
WILLISTON      SUNNY     91  45  20 S5        29.92F
MINOT          SUNNY     86  45  23 W7G18     29.90F
MINOT AFB      MOSUNNY   86  51  30 NE15      29.89F
$$

NDZ018>021-031>035-040>046-232300-
SOUTHWEST NORTH DAKOTA

CITY           SKY/WX    TMP DP  RH WIND       PRES   REMARKS
BISMARCK       SUNNY     83  54  36 SE8       29.96F
DICKINSON      SUNNY     86  48  26 S5        29.95F
GARRISON         N/A     83  53  35 SE8       29.94F
HETTINGER ARPT SUNNY     86  48  26 VRB5      29.98F
$$

NDZ004>008-012>016-024-026-027-054-232300-
NORTHEAST NORTH DAKOTA

CITY           SKY/WX    TMP DP  RH WIND       PRES   REMARKS
GRAND FORKS    PTSUNNY   75  50  41 NE17G23   30.00S
GRND FRKS AFB  CLOUDY    74  49  41 E6        30.00S
DEVILS LAKE    CLOUDY    74  53  48 E8        29.98F
$$

NDZ022-023-025-028>030-036>039-047>053-232300-
SOUTHEAST NORTH DAKOTA

CITY           SKY/WX    TMP DP  RH WIND       PRES   REMARKS
FARGO          SUNNY     78  50  37 SE5       29.99F
JAMESTOWN      SUNNY     79  53  40 S10       29.97F
$$





USA.gov is the U.S. government's official web portal to all federal, state and local government web resources and services.